Tiempo cada hora Aalen

Hoy, 22 Junio, Martes

Tiempo Temperatura Precipitaciones Viento Presión Humedad
00:00 +17°C° 2.8 mm 2 mps 719 mmHg 95%
01:00 +16°C° 0 mm 1 mps 719 mmHg 96%
02:00 +16°C° 0 mm 1 mps 719 mmHg 96%
03:00 +15°C° 0 mm 1 mps 718 mmHg 96%
04:00 +15°C° 0 mm 1 mps 718 mmHg 96%
05:00 +16°C° 0 mm 1 mps 718 mmHg 94%
06:00 +18°C° 0 mm 1 mps 719 mmHg 91%
07:00 +19°C° 0 mm 1 mps 719 mmHg 90%
08:00 +20°C° 0.1 mm 1 mps 719 mmHg 86%
09:00 +21°C° 0.1 mm 1 mps 719 mmHg 82%
10:00 +21°C° 0.1 mm 2 mps 719 mmHg 78%
11:00 +21°C° 1.1 mm 2 mps 719 mmHg 79%
12:00 +21°C° 1.1 mm 2 mps 719 mmHg 81%
13:00 +21°C° 0 mm 2 mps 720 mmHg 83%
14:00 +21°C° 1.3 mm 3 mps 720 mmHg 84%
15:00 +21°C° 1.3 mm 3 mps 720 mmHg 85%
16:00 +21°C° 1.3 mm 3 mps 721 mmHg 86%
17:00 +20°C° 0.1 mm 3 mps 721 mmHg 87%
18:00 +20°C° 0.1 mm 3 mps 721 mmHg 87%
19:00 +20°C° 0.1 mm 2 mps 721 mmHg 88%
20:00 +19°C° 0.4 mm 2 mps 721 mmHg 90%
21:00 +18°C° 0.4 mm 2 mps 721 mmHg 93%
22:00 +16°C° 0.4 mm 1 mps 721 mmHg 96%
23:00 +16°C° 1.2 mm 2 mps 722 mmHg 97%

Mañana, 23 Junio, Miércoles

Tiempo Temperatura Precipitaciones Viento Presión Humedad
00:00 +16°C° 1.2 mm 2 mps 722 mmHg 97%
01:00 +16°C° 1.2 mm 2 mps 722 mmHg 98%
02:00 +16°C° 2.2 mm 2 mps 722 mmHg 98%
03:00 +16°C° 2.2 mm 2 mps 722 mmHg 98%
04:00 +16°C° 2.2 mm 2 mps 723 mmHg 97%
05:00 +16°C° 0.6 mm 1 mps 723 mmHg 96%
06:00 +16°C° 0.6 mm 1 mps 723 mmHg 95%
07:00 +16°C° 0.6 mm 1 mps 723 mmHg 94%
08:00 +18°C° 0 mm 1 mps 723 mmHg 87%
09:00 +20°C° 0 mm 1 mps 724 mmHg 80%
10:00 +21°C° 0 mm 1 mps 724 mmHg 73%
11:00 +22°C° 0.1 mm 1 mps 724 mmHg 71%
12:00 +21°C° 0.1 mm 2 mps 724 mmHg 68%
13:00 +23°C° 0.1 mm 2 mps 724 mmHg 66%
14:00 +23°C° 0 mm 2 mps 724 mmHg 66%
15:00 +23°C° 0 mm 2 mps 724 mmHg 66%
16:00 +22°C° 0 mm 3 mps 723 mmHg 66%
17:00 +21°C° 0 mm 3 mps 723 mmHg 71%
18:00 +21°C° 0 mm 3 mps 723 mmHg 77%
19:00 +20°C° 0 mm 3 mps 723 mmHg 82%
20:00 +19°C° 0.1 mm 2 mps 723 mmHg 85%
21:00 +18°C° 0.1 mm 2 mps 723 mmHg 88%
22:00 +17°C° 0.1 mm 2 mps 723 mmHg 91%
23:00 +16°C° 0.7 mm 2 mps 723 mmHg 92%

Pasado mañana, 24 Junio, Jueves

Tiempo Temperatura Precipitaciones Viento Presión Humedad
00:00 +16°C° 0.7 mm 2 mps 723 mmHg 94%
01:00 +16°C° 0.7 mm 2 mps 723 mmHg 96%
02:00 +15°C° 0.3 mm 1 mps 723 mmHg 96%
03:00 +15°C° 0.3 mm 1 mps 723 mmHg 96%
04:00 +15°C° 0.3 mm 1 mps 723 mmHg 96%
05:00 +15°C° 0 mm 1 mps 723 mmHg 94%
06:00 +16°C° 0 mm 1 mps 724 mmHg 93%
07:00 +18°C° 0 mm 1 mps 724 mmHg 91%
08:00 +19°C° 0 mm 1 mps 724 mmHg 85%
09:00 +19°C° 0 mm 2 mps 724 mmHg 79%
10:00 +20°C° 0 mm 2 mps 724 mmHg 73%
11:00 +21°C° 0.1 mm 2 mps 724 mmHg 71%
12:00 +21°C° 0.1 mm 2 mps 723 mmHg 70%
13:00 +23°C° 0.1 mm 2 mps 723 mmHg 68%
14:00 +21°C° 0.1 mm 3 mps 723 mmHg 72%
15:00 +21°C° 0.1 mm 3 mps 723 mmHg 75%
16:00 +20°C° 0.1 mm 4 mps 722 mmHg 78%
17:00 +19°C° 1 mm 3 mps 723 mmHg 82%
18:00 +18°C° 1 mm 2 mps 723 mmHg 86%
19:00 +17°C° 1 mm 2 mps 723 mmHg 91%
20:00 +17°C° 0.6 mm 2 mps 723 mmHg 92%
21:00 +16°C° 0.6 mm 2 mps 724 mmHg 94%
22:00 +15°C° 0.6 mm 2 mps 724 mmHg 96%
23:00 +15°C° 0.5 mm 2 mps 724 mmHg 96%

25 Junio, Viernes

Tiempo Temperatura Precipitaciones Viento Presión Humedad
00:00 +14°C° 0.5 mm 3 mps 724 mmHg 97%
01:00 +14°C° 0.5 mm 3 mps 724 mmHg 97%
02:00 +14°C° 0.1 mm 3 mps 724 mmHg 97%
03:00 +14°C° 0.1 mm 3 mps 724 mmHg 97%
04:00 +14°C° 0.1 mm 3 mps 724 mmHg 97%
05:00 +14°C° 0 mm 3 mps 725 mmHg 96%
06:00 +14°C° 0 mm 3 mps 725 mmHg 95%
07:00 +14°C° 0 mm 3 mps 725 mmHg 94%
08:00 +14°C° 0.1 mm 3 mps 725 mmHg 91%
09:00 +16°C° 0.1 mm 3 mps 725 mmHg 88%
10:00 +16°C° 0.1 mm 3 mps 725 mmHg 85%
11:00 +17°C° 0.2 mm 3 mps 725 mmHg 83%
12:00 +17°C° 0.2 mm 3 mps 725 mmHg 80%
13:00 +18°C° 0.2 mm 3 mps 725 mmHg 78%
14:00 +18°C° 0.1 mm 4 mps 725 mmHg 74%
15:00 +19°C° 0.1 mm 4 mps 725 mmHg 71%
16:00 +20°C° 0.1 mm 4 mps 725 mmHg 68%
17:00 +19°C° 0.1 mm 3 mps 725 mmHg 74%
18:00 +18°C° 0.1 mm 3 mps 725 mmHg 79%
19:00 +17°C° 0.1 mm 2 mps 725 mmHg 84%
20:00 +16°C° 0 mm 2 mps 725 mmHg 87%
21:00 +15°C° 0 mm 1 mps 726 mmHg 91%
22:00 +14°C° 0 mm 1 mps 726 mmHg 94%
23:00 +13°C° 0 mm 1 mps 726 mmHg 94%

26 Junio, Sábado

Tiempo Temperatura Precipitaciones Viento Presión Humedad
00:00 +13°C° 0 mm 1 mps 726 mmHg 95%
01:00 +13°C° 0 mm 1 mps 726 mmHg 96%
02:00 +13°C° 0 mm 1 mps 726 mmHg 96%
03:00 +12°C° 0 mm 1 mps 726 mmHg 97%
04:00 +12°C° 0 mm 1 mps 726 mmHg 97%
05:00 +13°C° 0 mm 1 mps 726 mmHg 95%
06:00 +15°C° 0 mm 1 mps 726 mmHg 93%
07:00 +15°C° 0 mm 0 mps 726 mmHg 91%
08:00 +16°C° 0 mm 0 mps 726 mmHg 84%
09:00 +18°C° 0 mm 0 mps 726 mmHg 77%
10:00 +21°C° 0 mm 1 mps 726 mmHg 70%
11:00 +22°C° 0.1 mm 1 mps 726 mmHg 68%
12:00 +22°C° 0.1 mm 1 mps 725 mmHg 65%
13:00 +23°C° 0.1 mm 1 mps 725 mmHg 63%
14:00 +23°C° 0.1 mm 1 mps 725 mmHg 62%
15:00 +23°C° 0.1 mm 1 mps 725 mmHg 62%
16:00 +24°C° 0.1 mm 1 mps 725 mmHg 62%
17:00 +23°C° 0 mm 1 mps 724 mmHg 67%
18:00 +22°C° 0 mm 1 mps 724 mmHg 73%
19:00 +22°C° 0 mm 1 mps 724 mmHg 79%
20:00 +20°C° 0 mm 1 mps 724 mmHg 82%
21:00 +18°C° 0 mm 1 mps 724 mmHg 86%
22:00 +16°C° 0 mm 1 mps 724 mmHg 89%
23:00 +16°C° 0 mm 1 mps 724 mmHg 89%

27 Junio, Domingo

Tiempo Temperatura Precipitaciones Viento Presión Humedad
00:00 +15°C° 0 mm 1 mps 724 mmHg 90%
01:00 +15°C° 0 mm 1 mps 723 mmHg 90%
02:00 +15°C° 0 mm 1 mps 723 mmHg 91%
03:00 +14°C° 0 mm 1 mps 723 mmHg 92%
04:00 +14°C° 0 mm 1 mps 723 mmHg 92%
05:00 +15°C° 0 mm 1 mps 723 mmHg 89%
06:00 +16°C° 0 mm 2 mps 723 mmHg 86%
07:00 +18°C° 0 mm 2 mps 723 mmHg 83%
08:00 +19°C° 0 mm 2 mps 723 mmHg 78%
09:00 +21°C° 0 mm 3 mps 723 mmHg 73%
10:00 +22°C° 0 mm 3 mps 723 mmHg 68%
11:00 +24°C° 0 mm 2 mps 723 mmHg 65%
12:00 +25°C° 0 mm 2 mps 723 mmHg 61%
13:00 +26°C° 0 mm 2 mps 723 mmHg 57%
14:00 +27°C° 0 mm 1 mps 723 mmHg 56%
15:00 +27°C° 0 mm 1 mps 723 mmHg 56%
16:00 +27°C° 0 mm 1 mps 723 mmHg 55%
17:00 +26°C° 0.2 mm 1 mps 723 mmHg 63%
18:00 +24°C° 0.2 mm 1 mps 723 mmHg 71%
19:00 +23°C° 0.2 mm 1 mps 723 mmHg 79%
20:00 +22°C° 0.1 mm 1 mps 723 mmHg 82%
21:00 +19°C° 0.1 mm 2 mps 723 mmHg 85%
22:00 +18°C° 0.1 mm 2 mps 723 mmHg 87%
23:00 +18°C° 0.3 mm 2 mps 723 mmHg 89%
Mostrar más

Necesitamos Su Consentimiento

Meteoprog y nuestros Proveedores de Servicios pueden almacenar y acceder a sus datos personales como cookies, identificadores de dispositivo u otras tecnologías similares de su dispositivo y procesar dichos datos para personalizar contenido y anuncios, además de ofrecer funciones de redes sociales y analizar el tráfico.

  • Almacenar y/o acceder a información en su dispositivo

    Se puede almacenar o acceder a cookies, identificadores de dispositivo u otra información de su dispositivo para los fines anteriormente indicados.

  • Anuncios y contenido personalizados, medición de anuncios y contenido, percepciones del público, y desarrollo de productos

    Los anuncios y el contenido pueden personalizarse en base a su perfil. Se pueden añadir más datos para personalizar mejor los anuncios y contenidos. Se puede medir el rendimiento de los anuncios y contenidos. Se puede obtener la percepción sobre el público que ha visto los anuncios y contenidos. Dichos datos pueden usarse para desarrollar o mejorar la experiencia del usuario, sistemas y software.

Al hacer clic en ‘Estoy De Acuerdo’ usted permitirá el uso de las cookies, identificadores de dispositivo, balizas web u otras tecnologías similares indicadas. Su configuración puede cambiarse desde el navegador de su dispositivo.

Para ciertos fines, los intereses legítimos pueden ser considerados por encima del consentimiento. Puede leer más sobre ello en nuestra Política de Privacidad y Cookies.